CW1522 Weather Reports


Display with metric or nautical units.
time (UTC)temp
F
wind
direction
speed
MPH
gust
MPH
rain 1hr
in
rain 24hr
in
rain mn
in
humidity
%
barometer
mb
20260506073054 52 0 0.0 0.0 0.00 0.03 0.00 82 1019.0
20260506073019 52 360 0.0 0.0 0.00 0.03 0.00 82 1018.6
20260506071602 52 0 0.0 0.0 0.00 0.03 0.00 82 1018.9
20260506071526 51 360 0.0 0.0 0.00 0.03 0.00 82 1018.6
20260506061604 51 0 0.0 0.0 0.00 0.03 0.03 82 1018.0
20260506061526 51 360 0.0 0.0 0.00 0.03 0.03 82 1017.7
20260506050107 51 0 0.0 0.0 0.00 0.03 0.03 81 1017.8
20260506044558 51 0 0.0 1.0 0.00 0.03 0.03 82 1017.5
20260506044511 51 360 0.0 1.0 0.00 0.03 0.03 82 1017.3
20260506043053 51 0 0.0 0.0 0.00 0.03 0.03 82 1017.4
20260506043012 51 360 0.0 0.0 0.00 0.03 0.03 82 1017.3
20260506041605 51 0 0.0 0.0 0.00 0.03 0.03 82 1017.3
20260506041517 51 360 0.0 0.0 0.00 0.03 0.03 83 1017.2
20260506040055 52 0 0.0 0.0 0.00 0.03 0.03 83 1017.1
20260506040024 51 360 0.0 0.0 0.00 0.03 0.03 83 1017.0
20260506034614 52 0 0.0 0.0 0.00 0.03 0.03 81 1016.8
20260506034504 51 360 0.0 0.0 0.00 0.03 0.03 81 1016.8
20260506033054 52 0 0.0 0.0 0.00 0.03 0.03 82 1016.6
20260506033007 52 360 0.0 0.0 0.00 0.03 0.03 82 1016.6
20260506031556 52 0 0.0 0.0 0.00 0.03 0.03 82 1016.4
20260506031510 52 360 0.0 0.0 0.00 0.03 0.03 82 1016.4
20260506030052 52 0 0.0 0.0 0.00 0.03 0.03 81 1016.4
20260506030020 52 360 0.0 0.0 0.00 0.03 0.03 81 1016.2
20260506024606 52 0 0.0 0.0 0.00 0.03 0.03 81 1016.1
20260506024527 52 360 0.0 0.0 0.00 0.03 0.03 81 1016.1
20260506023051 53 0 0.0 0.0 0.00 0.03 0.03 80 1016.1
20260506023024 53 360 0.0 0.0 0.00 0.03 0.03 80 1016.0
20260506021554 53 0 0.0 0.0 0.00 0.03 0.03 80 1016.1
20260506021510 53 360 0.0 0.0 0.00 0.03 0.03 79 1015.9
20260506020051 53 0 0.0 0.0 0.00 0.03 0.03 79 1016.0
20260506020015 53 360 0.0 0.0 0.00 0.03 0.03 79 1015.9
20260506014550 53 0 0.0 0.0 0.00 0.03 0.03 79 1016.0
20260506014520 53 360 0.0 0.0 0.00 0.03 0.03 80 1015.8
20260506013103 53 0 0.0 0.0 0.00 0.03 0.03 79 1016.0
20260506013025 53 360 0.0 0.0 0.00 0.03 0.03 79 1015.8
20260506011606 53 0 0.0 1.0 0.00 0.03 0.03 78 1016.0
20260506011525 53 360 0.0 1.0 0.00 0.03 0.03 78 1015.9
20260506010056 53 0 0.0 1.0 0.00 0.03 0.03 77 1016.1
20260506010012 53 360 0.0 1.0 0.00 0.03 0.03 77 1015.9
20260506004553 53 360 0.0 2.0 0.00 0.03 0.03 77 1016.0
20260506004532 53 360 0.0 2.0 0.00 0.03 0.03 77 1015.9
20260506003055 53 0 0.0 0.0 0.00 0.03 0.03 77 1016.1
20260506003024 53 360 0.0 0.0 0.00 0.03 0.03 77 1015.9
20260506001554 53 0 0.0 2.0 0.00 0.03 0.03 77 1016.0
20260506001525 53 360 0.0 2.0 0.00 0.03 0.03 77 1016.0
20260506000055 53 0 0.0 3.0 0.00 0.03 0.03 77 1016.0
20260506000007 53 360 0.0 3.0 0.00 0.03 0.03 78 1015.8
20260505234557 54 0 0.0 1.0 0.00 0.03 0.03 77 1015.9
20260505234514 54 360 0.0 1.0 0.00 0.03 0.03 76 1015.7
20260505233049 53 0 0.0 1.0 0.00 0.03 0.03 76 1016.0
20260505233033 53 360 0.0 1.0 0.00 0.03 0.03 76 1015.7
20260505231552 54 360 0.0 2.0 0.00 0.03 0.03 76 1015.8
20260505231531 54 360 0.0 2.0 0.00 0.03 0.03 76 1015.7
20260505230104 54 0 0.0 2.0 0.00 0.03 0.03 76 1015.6
20260505230031 54 13 0.0 2.0 0.00 0.03 0.03 76 1015.6
20260505224553 54 0 0.0 0.0 0.00 0.03 0.03 76 1015.6
20260505224510 54 13 0.0 0.0 0.00 0.03 0.03 76 1015.6
20260505223108 53 0 0.0 0.0 0.00 0.03 0.03 76 1015.8
20260505223019 53 14 0.0 0.0 0.00 0.03 0.03 75 1015.7
20260505221554 53 0 0.0 2.0 0.00 0.03 0.03 77 1015.7
20260505221522 53 360 0.0 2.0 0.00 0.03 0.03 76 1015.7
20260505220052 53 13 0.0 2.0 0.00 0.03 0.03 76 1015.9
20260505220046 53 11 0.0 2.0 0.00 0.03 0.03 76 1015.8
20260505214553 53 14 0.0 4.0 0.00 0.03 0.03 76 1015.7
20260505214532 53 15 1.0 4.0 0.00 0.03 0.03 77 1015.6
20260505213100 53 0 0.0 1.0 0.00 0.03 0.03 79 1015.8
20260505213021 53 17 0.0 1.0 0.00 0.03 0.03 79 1015.7
20260505211555 53 0 0.0 3.0 0.00 0.03 0.03 78 1015.9
20260505211518 53 360 0.0 3.0 0.00 0.03 0.03 79 1015.8
20260505210056 53 13 0.0 5.0 0.00 0.03 0.03 76 1015.7
20260505210028 53 13 0.0 5.0 0.00 0.03 0.03 75 1015.6
20260505204601 54 360 0.0 5.0 0.00 0.06 0.03 76 1015.5
20260505204525 54 360 0.0 5.0 0.00 0.03 0.03 76 1015.4
20260505203108 53 360 3.0 5.0 0.00 0.06 0.03 76 1015.6
20260505203010 53 360 3.0 5.0 0.00 0.04 0.03 76 1015.4
20260505201553 52 0 0.0 2.0 0.00 0.06 0.03 82 1015.6
20260505201507 52 360 0.0 2.0 0.00 0.05 0.03 81 1015.5
20260505200054 52 0 0.0 4.0 0.00 0.06 0.03 83 1015.8
20260505200008 52 360 0.0 4.0 0.00 0.06 0.03 82 1015.7
20260505194610 52 0 0.0 2.0 0.00 0.09 0.03 81 1015.7
20260505194508 52 360 0.0 2.0 0.00 0.07 0.03 80 1015.6
20260505193056 52 0 0.0 2.0 0.00 0.09 0.03 79 1015.6
20260505193009 52 360 0.0 1.0 0.00 0.08 0.03 79 1015.6
20260505191554 52 0 0.0 2.0 0.00 0.09 0.03 82 1015.5
20260505191508 52 360 0.0 2.0 0.00 0.08 0.03 83 1015.4
20260505190100 51 0 0.0 6.0 0.00 0.09 0.03 83 1015.8
20260505190008 51 360 0.0 4.0 0.00 0.09 0.03 83 1015.6
20260505184556 52 0 0.0 3.0 0.00 0.10 0.03 82 1015.6
20260505184510 51 360 0.0 3.0 0.00 0.09 0.03 81 1015.4
20260505183101 51 0 0.0 4.0 0.00 0.10 0.03 82 1015.2
20260505183007 51 360 0.0 4.0 0.00 0.09 0.03 83 1015.2
20260505181551 52 0 0.0 5.0 0.00 0.10 0.03 84 1015.5
20260505181510 52 360 1.0 5.0 0.00 0.10 0.03 84 1015.4
20260505180010 51 360 2.0 9.0 0.00 0.10 0.03 87 1015.1
20260505174600 50 360 2.0 5.0 0.00 0.11 0.03 89 1015.2
20260505174510 50 360 2.0 5.0 0.00 0.11 0.03 89 1015.0
20260505173056 50 360 3.0 6.0 0.00 0.11 0.03 89 1014.8
20260505173011 50 360 3.0 6.0 0.00 0.11 0.03 89 1014.8
20260505171553 50 360 2.0 5.0 0.00 0.11 0.03 89 1014.6
20260505171508 50 360 2.0 5.0 0.00 0.11 0.03 89 1014.5
20260505170055 50 360 1.0 5.0 0.00 0.11 0.03 89 1014.5
20260505170011 50 360 2.0 5.0 0.00 0.11 0.03 88 1014.5
20260505164603 50 360 0.0 4.0 0.00 0.11 0.03 88 1014.5
20260505164515 50 360 0.0 4.0 0.00 0.11 0.03 88 1014.4
20260505163056 50 360 3.0 5.0 0.00 0.11 0.03 90 1014.5
20260505163013 50 360 3.0 5.0 0.00 0.11 0.03 90 1014.4
20260505161551 49 360 0.0 2.0 0.00 0.11 0.03 90 1014.3
20260505161516 49 360 0.0 2.0 0.00 0.11 0.03 90 1014.2
20260505153109 47 0 0.0 3.0 0.00 0.11 0.03 91 1014.3
20260505153016 47 360 0.0 3.0 0.00 0.11 0.03 91 1014.2
20260505151557 47 360 0.0 4.0 0.00 0.11 0.03 92 1014.2
20260505151516 47 360 0.0 3.0 0.00 0.11 0.03 92 1014.0
20260505140105 46 360 1.0 4.0 0.00 0.10 0.02 93 1013.8
20260505130110 46 0 0.0 2.0 0.01 0.10 0.02 93 1013.5
20260505124611 46 0 0.0 0.0 0.02 0.12 0.02 92 1013.5
20260505124534 46 360 0.0 0.0 0.02 0.10 0.02 92 1013.4
20260505123108 46 0 0.0 3.0 0.01 0.11 0.01 92 1013.4
20260505123023 47 360 0.0 3.0 0.01 0.11 0.01 92 1013.3
20260505121556 47 0 0.0 1.0 0.01 0.11 0.01 92 1013.4
20260505121518 47 360 0.0 1.0 0.01 0.11 0.01 92 1013.3
20260505120100 47 0 0.0 2.0 0.01 0.11 0.01 92 1013.3
20260505120028 47 360 0.0 2.0 0.01 0.11 0.01 92 1013.2
20260505114558 47 0 0.0 3.0 0.00 0.10 0.00 92 1013.3
20260505114523 47 360 0.0 2.0 0.00 0.10 0.00 92 1013.1
20260505113101 47 0 0.0 0.0 0.00 0.10 0.00 92 1013.3
20260505113026 47 360 0.0 0.0 0.00 0.10 0.00 92 1013.2
20260505111558 47 0 0.0 0.0 0.00 0.10 0.00 92 1013.2
20260505111512 47 360 0.0 0.0 0.00 0.10 0.00 92 1013.2
20260505110105 47 0 0.0 0.0 0.00 0.10 0.00 92 1013.3
20260505101557 47 0 0.0 0.0 0.00 0.10 0.00 91 1013.3
20260505101513 47 360 0.0 0.0 0.00 0.10 0.00 91 1013.1
20260505100057 47 0 0.0 0.0 0.00 0.10 0.00 91 1013.3
20260505100016 47 360 0.0 0.0 0.00 0.10 0.00 91 1013.2
20260505094601 47 0 0.0 0.0 0.00 0.10 0.00 91 1013.4
20260505094521 47 360 0.0 0.0 0.00 0.10 0.00 91 1013.2
20260505093058 47 0 0.0 0.0 0.00 0.10 0.00 92 1013.4
20260505093004 47 360 0.0 0.0 0.00 0.10 0.00 92 1013.3
20260505091559 47 0 0.0 0.0 0.00 0.10 0.00 91 1013.7
20260505091507 47 360 0.0 0.0 0.00 0.10 0.00 91 1013.5
20260505090059 48 0 0.0 0.0 0.00 0.10 0.00 91 1013.7
20260505090012 48 360 0.0 0.0 0.00 0.10 0.00 91 1013.6
20260505084557 48 0 0.0 0.0 0.00 0.10 0.00 91 1013.7
20260505084539 48 360 0.0 0.0 0.00 0.10 0.00 91 1013.6
20260505083057 48 0 0.0 0.0 0.00 0.10 0.00 91 1013.7
20260505083021 48 360 0.0 0.0 0.00 0.10 0.00 91 1013.7
20260505081601 48 0 0.0 0.0 0.00 0.10 0.00 91 1014.0
20260505081515 48 360 0.0 0.0 0.00 0.10 0.00 91 1013.8